Location: Unspecified
(0.0000°N, 0.0000°E)
Time: 15:35:03
(UTC+00:00)

Transit 2A - Pass Details

Date: 16 December 2021
Orbit: 591 x 967 km, 66.7° (Epoch: 21 January)

Event Time Altitude Azimuth Distance (km) Brightness Sun altitude
Rises 18:26:33 0° 170° (S) 3,007 9.3 -7.0°
Reaches altitude 10° 18:29:27 10° 151° (SSE) 2,156 8.3 -7.7°
Maximum altitude 18:32:46 18° 108° (ESE) 1,747 7.4 -8.5°
Enters shadow 18:35:55 11° 69° (ENE) 2,219 7.7 -9.2°
